Key West Weather Center

Moon Phase Calendar



Online Cameras

 


      

Current Conditions in Key West
10/16/2021 10:49:51 PM

82°F
Feels Like 88
Clouds
Humidity
78%
Pressure
29.97"
Wind
0
Dew Point
74°F
UV Index
0/10 (Low)
Visibility
6 mi

Hourly Forecast

Date & Time Sat, Oct 16
10:00 PM
Sat, Oct 16
11:00 PM
Sun, Oct 17
12:00 AM
Sun, Oct 17
1:00 AM
Sun, Oct 17
2:00 AM
Sun, Oct 17
3:00 AM
Sun, Oct 17
4:00 AM
Sun, Oct 17
5:00 AM
Sun, Oct 17
6:00 AM
Sun, Oct 17
7:00 AM
Sun, Oct 17
8:00 AM
Sun, Oct 17
9:00 AM
Sun, Oct 17
10:00 AM
Sun, Oct 17
11:00 AM
Sun, Oct 17
12:00 PM
Sun, Oct 17
1:00 PM
Sun, Oct 17
2:00 PM
Sun, Oct 17
3:00 PM
Sun, Oct 17
4:00 PM
Sun, Oct 17
5:00 PM
Sun, Oct 17
6:00 PM
Sun, Oct 17
7:00 PM
Sun, Oct 17
8:00 PM
Sun, Oct 17
9:00 PM
Sun, Oct 17
10:00 PM
Sun, Oct 17
11:00 PM
Mon, Oct 18
12:00 AM
Mon, Oct 18
1:00 AM
Mon, Oct 18
2:00 AM
Mon, Oct 18
3:00 AM
Mon, Oct 18
4:00 AM
Mon, Oct 18
5:00 AM
Mon, Oct 18
6:00 AM
Mon, Oct 18
7:00 AM
Mon, Oct 18
8:00 AM
Mon, Oct 18
9:00 AM
Mon, Oct 18
10:00 AM
Mon, Oct 18
11:00 AM
Mon, Oct 18
12:00 PM
Mon, Oct 18
1:00 PM
Mon, Oct 18
2:00 PM
Mon, Oct 18
3:00 PM
Mon, Oct 18
4:00 PM
Mon, Oct 18
5:00 PM
Mon, Oct 18
6:00 PM
Mon, Oct 18
7:00 PM
Mon, Oct 18
8:00 PM
Mon, Oct 18
9:00 PM
Condition
Clouds

Clouds

Clouds

Clouds

Clouds

Clouds

Clear

Clear

Clear

Clear

Clear

Clear

Clear

Clear

Clear

Clouds

Clouds

Clouds

Clouds

Clouds

Clouds

Clouds

Rain

Clouds

Rain

Rain

Rain

Rain

Rain

Rain

Rain

Rain

Rain

Rain

Clouds

Rain

Rain

Rain

Rain

Clouds

Clouds

Clouds

Clouds

Clouds

Clouds

Clouds

Clouds

Clear
Temperature 82°F82°F82°F82°F82°F82°F82°F82°F82°F82°F82°F82°F82°F82°F82°F82°F82°F82°F82°F82°F82°F82°F82°F82°F82°F82°F82°F82°F82°F81°F80°F79°F79°F80°F80°F80°F80°F80°F81°F81°F81°F81°F81°F81°F81°F81°F81°F81°F
Feels Like 88°F88°F88°F87°F86°F86°F86°F86°F86°F86°F86°F86°F86°F86°F86°F86°F86°F86°F86°F86°F86°F86°F86°F86°F86°F86°F86°F86°F86°F85°F80°F79°F79°F80°F80°F80°F84°F84°F84°F85°F85°F85°F85°F84°F84°F84°F84°F84°F
Cloudiness 74%90%73%55%38%18%1%3%3%3%4%9%8%7%7%25%37%99%96%92%94%92%89%17%12%9%9%9%11%16%15%25%25%37%42%99%96%94%93%91%91%91%93%91%86%79%71%7%
Visibility 6 mi6 mi6 mi6 mi6 mi6 mi6 mi6 mi6 mi6 mi6 mi6 mi6 mi6 mi6 mi6 mi6 mi6 mi6 mi6 mi6 mi6 mi6 mi6 mi6 mi6 mi6 mi6 mi6 mi6 mi6 mi6 mi6 mi6 mi6 mi6 mi6 mi6 mi6 mi6 mi6 mi6 mi6 mi6 mi6 mi6 mi6 mi6 mi
Precipitation 1%1%5%5%5%11%11%11%7%12%11%18%11%8%12%16%20%13%17%12%8%8%33%37%67%77%65%66%67%48%56%59%61%64%55%55%55%54%54%50%50%27%27%27%27%23%23%3%
Humidity 75%78%75%72%70%69%68%68%69%69%69%69%68%68%67%67%67%67%68%68%68%68%69%69%70%70%70%70%71%74%76%79%78%78%78%77%75%74%73%72%70%70%69%68%68%68%68%68%
Dew Point 73°F74°F73°F72°F71°F71°F70°F70°F71°F71°F71°F71°F71°F70°F70°F70°F70°F70°F70°F70°F70°F70°F71°F71°F71°F71°F71°F71°F72°F72°F72°F72°F72°F72°F72°F72°F72°F71°F71°F71°F71°F70°F70°F70°F70°F69°F70°F69°F
Pressure 29.97"29.97"29.97"29.97"29.94"29.94"29.91"29.91"29.91"29.94"29.94"29.97"29.97"29.97"29.97"29.97"29.94"29.94"29.91"29.91"29.91"29.94"29.94"29.97"29.97"29.97"29.97"29.94"29.94"29.94"29.94"29.94"29.94"29.97"29.97"30"30"30"30"29.97"29.97"29.94"29.94"29.94"29.94"29.97"29.97"30"
Wind Speed 5.3 mph5.6 mph5.8 mph5.9 mph5.9 mph6.6 mph7 mph7.8 mph8.4 mph8.6 mph9.1 mph8.9 mph8.7 mph7.5 mph6.7 mph6.4 mph6.5 mph7.1 mph7.2 mph7.1 mph6.5 mph6.3 mph8.6 mph10.2 mph10.3 mph11.1 mph12 mph12.3 mph13.8 mph14.6 mph16.1 mph18.7 mph20.1 mph20.8 mph21.4 mph21.7 mph22.2 mph22.2 mph21.9 mph22 mph21.8 mph21.1 mph20.1 mph19.4 mph20.3 mph21.5 mph22.3 mph21.9 mph
Wind
Direction
311°
NW
329°
NNW
341°
NNW
347°
NNW
345°
NNW
340°
NNW
343°
NNW
350°
N
359°
N

N

N

N

N

N

N

N

N

N

N

N
357°
N
344°
NNW
356°
N

N
13°
NNE
23°
NNE
33°
NNE
45°
NE
66°
ENE
74°
ENE
60°
ENE
55°
NE
55°
NE
55°
NE
56°
NE
55°
NE
56°
NE
56°
NE
59°
ENE
62°
ENE
64°
ENE
67°
ENE
70°
ENE
74°
ENE
76°
ENE
77°
ENE
78°
ENE
77°
ENE

Daily Forecast

Date High Low Precip. Humidity
Today
Oct 16

Rain
82 °F
81 °F
100%
66%
Sunday
Oct 17

Rain
82 °F
82 °F
77%
67%
Monday
Oct 18

Rain
82 °F
79 °F
67%
72%
Tuesday
Oct 19

Clouds
81 °F
80 °F
12%
67%
Wednesday
Oct 20

Rain
82 °F
81 °F
67%
73%
Thursday
Oct 21

Rain
82 °F
82 °F
83%
75%
Friday
Oct 22

Rain
82 °F
81 °F
77%
77%
Saturday
Oct 23

Rain
82 °F
81 °F
94%
78%
Sunday
Oct 24

Rain
81 °F
80 °F
97%
77%
Monday
Oct 25

Rain
81 °F
78 °F
100%
89%
Tuesday
Oct 26

Rain
81 °F
80 °F
83%
74%
Wednesday
Oct 27

Rain
81 °F
80 °F
100%
83%
Thursday
Oct 28

Rain
80 °F
77 °F
100%
81%
Friday
Oct 29

Rain
81 °F
78 °F
99%
77%
Saturday
Oct 30

Rain
78 °F
73 °F
43%
61%
Sunday
Oct 31

Clouds
79 °F
77 °F
3%
66%

Temperature 8-14 Day Outlook



Precipitation 8-14 Day Outlook




Quick Links
Key West News
Key West Photos
Key West Videos




About Us
Contact Us
Site Map
Search Site
Advertise With Us
   
Key-West.CoastalTown.com
THE KEY WEST WEBSITE

Copyright 2021, Coastal Town
Privacy    |    Legal